FW9469 Weather Reports


time (UTC)temp
F
wind
direction
speed
knots
gust
knots
rain 1hr
in
rain 24hr
in
rain mn
in
humidity
%
barometer
mb
20260509011555 61 0 0.0 0.0 0.00 0.00 0.00 82 1015.0
20260509010052 61 0 0.0 0.0 0.00 0.00 0.00 81 1014.8
20260509004621 62 0 0.0 0.9 0.00 0.00 0.00 80 1014.7
20260509003054 62 0 0.0 0.0 0.00 0.00 0.00 78 1014.7
20260509001555 63 0 0.0 0.0 0.00 0.00 0.00 75 1014.7
20260509000053 64 0 0.0 0.9 0.00 0.00 0.00 72 1014.7
20260508234551 64 0 0.0 1.7 0.00 0.00 0.00 70 1014.6
20260508233054 65 184 0.9 1.7 0.00 0.00 0.00 69 1014.6
20260508231557 66 0 0.0 2.6 0.00 0.00 0.00 68 1014.6
20260508230051 66 0 0.0 2.6 0.00 0.00 0.00 68 1014.6
20260508224557 66 0 0.0 3.5 0.00 0.00 0.00 66 1014.6
20260508223053 67 159 0.9 3.5 0.00 0.00 0.00 65 1014.6
20260508221550 67 191 0.9 3.5 0.00 0.00 0.00 63 1014.4
20260508220056 67 177 0.9 3.5 0.00 0.00 0.00 60 1014.4
20260508214603 67 163 1.7 6.1 0.00 0.00 0.00 60 1014.5
20260508213048 68 164 0.0 4.3 0.00 0.00 0.00 60 1014.5
20260508211546 68 158 1.7 8.7 0.00 0.00 0.00 60 1014.5
20260508210052 68 164 2.6 6.1 0.00 0.00 0.00 59 1014.6
20260508204552 68 225 2.6 7.0 0.00 0.00 0.00 57 1014.5
20260508203052 69 167 3.5 7.0 0.00 0.00 0.00 56 1014.6
20260508201552 68 205 4.3 7.8 0.00 0.00 0.00 56 1014.9
20260508200053 69 200 1.7 6.1 0.00 0.00 0.00 55 1015.0
20260508194549 69 246 2.6 7.8 0.00 0.00 0.00 54 1015.2
20260508193107 69 196 0.9 5.2 0.00 0.00 0.00 52 1015.5
20260508191555 69 156 4.3 11.3 0.00 0.00 0.00 50 1015.8
20260508190105 68 0 1.7 7.0 0.00 0.00 0.00 51 1015.9
20260508184559 68 123 4.3 13.0 0.00 0.00 0.00 51 1015.9
20260508183112 69 238 2.6 7.0 0.00 0.00 0.00 51 1016.3
20260508181554 69 239 3.5 9.6 0.00 0.00 0.00 53 1016.4
20260508174605 67 225 3.5 9.6 0.00 0.00 0.00 55 1016.9
20260508173053 66 203 5.2 12.2 0.00 0.00 0.00 56 1017.1
20260508171551 66 155 5.2 8.7 0.00 0.00 0.00 55 1017.3
20260508170057 65 136 4.3 12.2 0.00 0.00 0.00 56 1017.5
20260508164554 66 251 1.7 12.2 0.00 0.00 0.00 58 1017.7
20260508163053 66 150 3.5 9.6 0.00 0.00 0.00 56 1017.9
20260508161602 64 146 4.3 9.6 0.00 0.00 0.00 59 1018.3
20260508160053 65 132 6.1 11.3 0.00 0.00 0.00 57 1018.4
20260508154551 65 154 2.6 7.0 0.00 0.00 0.00 57 1018.3
20260508153054 65 146 3.5 7.8 0.00 0.00 0.00 58 1018.6
20260508151549 64 155 3.5 7.8 0.00 0.00 0.00 58 1018.7
20260508150050 63 114 1.7 5.2 0.00 0.00 0.00 58 1018.6
20260508144555 63 36 1.7 9.6 0.00 0.01 0.00 58 1018.6
20260508143059 63 29 1.7 7.8 0.00 0.01 0.00 57 1018.5
20260508141605 61 101 2.6 7.0 0.00 0.01 0.00 69 1018.6
20260508140048 60 42 1.7 6.1 0.00 0.01 0.00 71 1018.8
20260508134556 59 27 0.9 4.3 0.00 0.01 0.00 74 1019.1
20260508133057 58 355 1.7 3.5 0.00 0.01 0.00 75 1019.0
20260508131603 57 103 0.0 4.3 0.00 0.01 0.00 77 1019.1
20260508130049 56 0 0.9 2.6 0.00 0.01 0.00 79 1018.9
20260508124555 55 19 0.9 4.3 0.00 0.01 0.00 80 1018.7
20260508123113 54 5 0.0 3.5 0.00 0.01 0.00 85 1018.6
20260508121608 52 360 0.9 3.5 0.00 0.01 0.00 87 1018.2
20260508120108 51 360 1.7 3.5 0.00 0.01 0.00 89 1018.1
20260508114559 50 10 0.9 3.5 0.00 0.01 0.00 91 1017.9
20260508113103 49 9 0.0 2.6 0.00 0.01 0.00 92 1017.6
20260508111552 48 9 0.9 3.5 0.00 0.01 0.00 92 1017.4
20260508110106 48 61 0.9 2.6 0.00 0.01 0.00 92 1016.8
20260508104558 48 63 0.0 1.7 0.00 0.01 0.00 92 1016.7
20260508103101 48 0 0.0 0.0 0.00 0.01 0.00 92 1016.4
20260508101558 48 0 0.0 0.9 0.00 0.01 0.00 92 1016.2
20260508100052 48 0 0.0 0.9 0.00 0.01 0.00 92 1016.0
20260508094551 48 0 0.0 0.9 0.00 0.02 0.00 92 1016.0
20260508093053 48 0 0.0 0.9 0.00 0.02 0.00 91 1015.8
20260508091556 48 63 0.0 1.7 0.00 0.02 0.00 91 1015.6
20260508084557 49 63 0.0 1.7 0.00 0.02 0.00 91 1015.4
20260508083051 49 0 0.0 1.7 0.00 0.02 0.00 91 1015.3
20260508081554 49 63 0.9 1.7 0.00 0.02 0.00 91 1015.3
20260508080050 49 69 0.0 1.7 0.00 0.02 0.00 91 1015.2
20260508074551 50 0 0.0 1.7 0.00 0.02 0.00 91 1015.2
20260508073051 50 79 0.0 1.7 0.00 0.02 0.00 90 1015.3
20260508071554 50 355 0.0 1.7 0.00 0.02 0.00 90 1015.4
20260508070056 51 0 0.0 0.0 0.00 0.02 0.00 90 1015.3
20260508064555 51 0 0.0 0.9 0.00 0.03 0.00 89 1015.2
20260508063104 51 0 0.0 0.0 0.00 0.03 0.00 89 1015.1
20260508061551 52 355 0.0 1.7 0.00 0.03 0.00 89 1015.1
20260508060052 52 0 0.0 0.9 0.00 0.03 0.00 89 1015.3
20260508054553 53 0 0.0 1.7 0.00 0.04 0.00 88 1015.2
20260508053103 53 355 0.0 0.9 0.00 0.04 0.00 86 1015.4
20260508051554 53 355 0.0 2.6 0.00 0.04 0.00 87 1015.4
20260508050050 54 0 0.0 0.0 0.00 0.04 0.00 85 1015.3
20260508044556 55 0 0.0 0.0 0.00 0.05 0.00 83 1015.2
20260508043059 55 0 0.0 0.0 0.00 0.05 0.00 84 1015.1
20260508041559 55 0 0.0 0.0 0.00 0.05 0.00 85 1015.1
20260508040056 55 355 0.0 1.7 0.00 0.05 0.00 84 1014.9
20260508034610 56 0 0.0 2.6 0.00 0.05 0.05 84 1014.7
20260508033056 57 0 0.0 1.7 0.00 0.05 0.05 80 1015.0
20260508031556 58 258 0.9 2.6 0.00 0.05 0.05 77 1014.8
20260508030056 58 257 0.0 2.6 0.00 0.05 0.05 79 1014.7
20260508024552 59 257 0.9 2.6 0.00 0.09 0.05 77 1014.5
20260508023055 59 0 0.0 1.7 0.00 0.09 0.05 77 1014.5
20260508021559 60 256 0.0 2.6 0.00 0.09 0.05 75 1014.1
20260508020053 60 0 0.0 3.5 0.00 0.09 0.05 76 1014.0
20260508014558 60 246 0.9 2.6 0.00 0.21 0.05 74 1013.8
20260508013058 61 0 0.0 3.5 0.00 0.21 0.05 72 1013.5